Location: Braunsdorf
(50.7357°N, 11.9136°E)
Time: 04:21:39
(UTC+00:00)

CZ-4B DEB - Pass Details

Date: 17 February 2020
Orbit: 840 x 862 km, 99.1° (Epoch: 09 April)

Event Time Altitude Azimuth Distance (km) Brightness Sun altitude
Rises 04:53:30 0° 15° (NNE) 3,431 7.5 -14.6°
Reaches altitude 10° 04:55:53 10° 16° (NNE) 2,487 6.8 -14.2°
Maximum altitude 05:01:25 90° 67° (ENE) 853 4.2 -13.3°
Drops below altitude 10° 05:06:53 10° 198° (SSW) 2,457 6.5 -12.5°
Sets 05:09:14 0° 198° (SSW) 3,386 7.2 -12.1°
